Weather History for KPWK - September, 2012

Change the Weather History Date:

Saturday, September 22, 2012

  Actual Average Record
Temperature  
Mean Temperature 52 °F 62 °F  
Max Temperature 59 °F 72 °F 87 °F (2005)
Min Temperature 45 °F 51 °F 39 °F (1999)
Degree Days  
Heating Degree Days 13 5  
Month to date heating degree days 64 50  
Since 1 July heating degree days 65 60  
Cooling Degree Days 0 1  
Month to date cooling degree days 81 71  
Year to date cooling degree days 1225 768  
Growing Degree Days 2 (Base 50)    
Moisture  
Dew Point 40 °F    
Average Humidity 70    
Maximum Humidity 93    
Minimum Humidity 48    
Precipitation  
Precipitation 0.01 in 0.09 in 1.81 in (2000)
Month to date precipitation 1.43 2.28  
Year to date precipitation 16.29 24.76  
Sea Level Pressure  
Sea Level Pressure 29.98 in    
Wind  
Wind Speed 10 mph (WNW)    
Max Wind Speed 29 mph    
Max Gust Speed 38 mph    
Visibility 10 miles    
Events Rain    
T = Trace of Precipitation, MM = Missing Value Source: NWS Daily Summary

Daily Weather History Graph

Daily Weather History Graph

Search for Another Location

Airport or City:

Trip Planner

Search our weather history database for the weather conditions in past years. The results will help you decide how hot, cold, wet, or windy it might be!

Date:

Astronomy

Sep. 22, 2012 Rise Set
Actual Time 6:39 AM CDT 6:48 PM CDT
Civil Twilight 6:11 AM CDT 7:15 PM CDT
Nautical Twilight 5:38 AM CDT 7:48 PM CDT
Astronomical Twilight 5:05 AM CDT 8:21 PM CDT
Moon 2:03 PM CDT (9/22) 11:46 PM CDT (9/22)
Length of Visible Light 13h 04m
Length of Day
12h 08m
Waxing Crescent, 49% of the Moon is Illuminated
Sep 22
Waxing Crescent
Sep 22
First Quarter
Sep 29
Full
Oct 8
Last Quarter
Oct 15
New

Hourly Weather History & Observations

Time (CDT) Temp. Windchill Dew Point Humidity Pressure Visibility Wind Dir Wind Speed Gust Speed Precip Events Conditions
12:52 AM 51.1 °F - 48.9 °F 92% 29.83 in 6.0 mi WNW 9.2 mph - 0.01 in Rain Light Rain
1:52 AM 51.1 °F - 48.0 °F 89% 29.83 in 10.0 mi Variable 3.5 mph - 0.00 in   Overcast
2:52 AM 50.0 °F - 46.9 °F 89% 29.82 in 10.0 mi WSW 4.6 mph - N/A   Partly Cloudy
3:52 AM 48.9 °F - 46.9 °F 93% 29.83 in 10.0 mi Calm Calm - N/A   Partly Cloudy
5:52 AM 48.0 °F - 46.0 °F 93% 29.83 in 9.0 mi Calm Calm - N/A   Clear
6:52 AM 50.0 °F - 46.9 °F 89% 29.84 in 6.0 mi WSW 10.4 mph - N/A   Scattered Clouds
7:38 AM 51.8 °F - 46.4 °F 82% 29.84 in 9.0 mi West 11.5 mph 18.4 mph N/A   Mostly Cloudy
7:52 AM 48.9 °F - 42.1 °F 77% 29.86 in 9.0 mi NW 20.7 mph 27.6 mph 0.00 in Rain Light Rain
7:59 AM 46.4 °F 39.8 °F 41.0 °F 81% 29.86 in 10.0 mi WNW 16.1 mph 26.5 mph 0.01 in Rain Light Rain
8:06 AM 46.4 °F 39.2 °F 39.2 °F 76% 29.86 in 10.0 mi NW 18.4 mph 24.2 mph 0.01 in   Mostly Cloudy
8:52 AM 45.0 °F 37.4 °F 37.0 °F 74% 29.90 in 10.0 mi NW 18.4 mph 34.5 mph 0.01 in   Mostly Cloudy
9:09 AM 46.4 °F 38.7 °F 35.6 °F 66% 29.90 in 10.0 mi NW 20.7 mph 33.4 mph N/A   Scattered Clouds
9:19 AM 44.6 °F 36.4 °F 35.6 °F 71% 29.91 in 10.0 mi WNW 20.7 mph 29.9 mph N/A   Mostly Cloudy
9:52 AM 45.0 °F 37.6 °F 34.0 °F 65% 29.94 in 10.0 mi NW 17.3 mph 32.2 mph N/A   Overcast
10:52 AM 46.9 °F - 35.1 °F 63% 29.96 in 10.0 mi NW 21.9 mph 33.4 mph N/A   Mostly Cloudy
11:00 AM 48.2 °F - 35.6 °F 62% 29.96 in 10.0 mi NW 19.6 mph 31.1 mph N/A   Partly Cloudy
11:52 AM 50.0 °F - 36.0 °F 59% 30.00 in 10.0 mi WNW 19.6 mph 29.9 mph N/A   Mostly Cloudy
11:59 AM 51.8 °F - 37.4 °F 58% 30.00 in 10.0 mi NW 20.7 mph 27.6 mph N/A   Mostly Cloudy
12:19 PM 51.8 °F - 37.4 °F 58% 30.01 in 10.0 mi NW 15.0 mph 26.5 mph N/A   Scattered Clouds
12:52 PM 54.0 °F - 39.0 °F 57% 30.03 in 10.0 mi WNW 12.7 mph 25.3 mph N/A   Partly Cloudy
1:52 PM 55.9 °F - 39.0 °F 53% 30.04 in 10.0 mi WNW 12.7 mph 25.3 mph N/A   Clear
3:52 PM 59.0 °F - 39.0 °F 48% 30.09 in 10.0 mi WNW 13.8 mph 18.4 mph N/A   Clear
4:52 PM 59.0 °F - 39.0 °F 48% 30.10 in 10.0 mi WNW 12.7 mph 19.6 mph N/A   Clear
5:52 PM 57.0 °F - 37.9 °F 49% 30.12 in 10.0 mi NW 10.4 mph - N/A   Partly Cloudy
6:52 PM 54.0 °F - 39.0 °F 57% 30.14 in 10.0 mi NW 9.2 mph - N/A   Clear
7:52 PM 51.1 °F - 39.0 °F 63% 30.15 in 10.0 mi WNW 4.6 mph - N/A   Clear
8:52 PM 51.1 °F - 39.0 °F 63% 30.17 in 10.0 mi WNW 6.9 mph - N/A   Clear
9:52 PM 50.0 °F - 39.0 °F 66% 30.18 in 10.0 mi West 6.9 mph - N/A   Partly Cloudy
10:52 PM 48.0 °F - 39.0 °F 71% 30.18 in 10.0 mi West 4.6 mph - N/A   Clear
11:52 PM 46.9 °F - 39.0 °F 74% 30.19 in 10.0 mi WNW 3.5 mph - N/A   Clear